Time,TemperatureF,DewpointF,PressureIn,WindDirection,WindDirectionDegrees,WindSpeedMPH,WindSpeedGustMPH,Humidity,HourlyPrecipIn,Conditions,Clouds,dailyrainin,SoftwareType,DateUTC
2013-01-03 00:02:00,8.9,-4.7,30.06,NW,316,2.1,13.9,53,0.00,n/a,n/a,-99.99,Henriksen +1-Wire,2013-01-03 05:02:00,
2013-01-03 00:08:00,9.6,-4.1,30.06,WNW,291,4.9,8.2,53,0.00,n/a,n/a,-99.99,Henriksen +1-Wire,2013-01-03 05:08:00,
2013-01-03 00:12:00,9.6,-4.1,30.07,WNW,291,3.0,8.2,53,0.00,n/a,n/a,-99.99,Henriksen +1-Wire,2013-01-03 05:12:00,
2013-01-03 00:18:00,9.5,-3.8,30.07,WNW,288,1.5,5.5,54,0.00,n/a,n/a,-99.99,Henriksen +1-Wire,2013-01-03 05:18:00,
2013-01-03 00:24:00,9.2,-4.0,30.07,WNW,292,2.5,4.9,54,0.00,n/a,n/a,-99.99,Henriksen +1-Wire,2013-01-03 05:24:00,
2013-01-03 00:30:00,8.8,-4.3,30.07,WNW,290,3.3,5.5,55,0.00,n/a,n/a,-99.99,Henriksen +1-Wire,2013-01-03 05:30:00,
2013-01-03 00:36:00,9.0,-4.4,30.07,WNW,297,2.6,7.0,54,0.00,n/a,n/a,-99.99,Henriksen +1-Wire,2013-01-03 05:36:00,
2013-01-03 00:42:00,8.4,-5.0,30.07,WNW,297,3.9,9.5,54,0.00,n/a,n/a,-99.99,Henriksen +1-Wire,2013-01-03 05:42:00,
2013-01-03 00:48:00,7.6,-6.1,30.08,WNW,293,4.0,10.7,53,0.00,n/a,n/a,-99.99,Henriksen +1-Wire,2013-01-03 05:48:00,
2013-01-03 00:54:00,7.0,-6.5,30.08,West,260,3.1,10.7,53,0.00,n/a,n/a,-99.99,Henriksen +1-Wire,2013-01-03 05:54:00,
2013-01-03 01:00:00,6.9,-6.4,30.08,WNW,284,3.7,5.6,54,0.00,n/a,n/a,-99.99,Henriksen +1-Wire,2013-01-03 06:00:00,
2013-01-03 01:06:00,6.7,-6.5,30.08,WNW,287,3.0,9.1,54,0.00,n/a,n/a,-99.99,Henriksen +1-Wire,2013-01-03 06:06:00,
2013-01-03 01:12:00,6.6,-6.5,30.08,WNW,297,2.7,7.2,54,0.00,n/a,n/a,-99.99,Henriksen +1-Wire,2013-01-03 06:12:00,
2013-01-03 01:18:00,6.6,-6.6,30.08,WNW,287,3.3,6.6,54,0.00,n/a,n/a,-99.99,Henriksen +1-Wire,2013-01-03 06:18:00,
2013-01-03 01:24:00,6.8,-6.4,30.08,SSW,205,2.6,6.6,54,0.00,n/a,n/a,-99.99,Henriksen +1-Wire,2013-01-03 06:24:00,
2013-01-03 01:30:00,6.9,-5.9,30.09,WSW,248,2.2,5.8,55,0.00,n/a,n/a,-99.99,Henriksen +1-Wire,2013-01-03 06:30:00,
2013-01-03 01:36:00,7.0,-6.3,30.09,WNW,291,5.6,9.4,54,0.00,n/a,n/a,-99.99,Henriksen +1-Wire,2013-01-03 06:36:00,
2013-01-03 01:42:00,6.6,-6.9,30.09,WNW,300,4.1,9.4,53,0.00,n/a,n/a,-99.99,Henriksen +1-Wire,2013-01-03 06:42:00,
2013-01-03 01:48:00,7.1,-6.4,30.09,West,263,3.7,9.7,53,0.00,n/a,n/a,-99.99,Henriksen +1-Wire,2013-01-03 06:48:00,
2013-01-03 01:54:00,7.4,-6.1,30.09,West,270,2.9,9.7,53,0.00,n/a,n/a,-99.99,Henriksen +1-Wire,2013-01-03 06:54:00,
2013-01-03 02:00:00,7.4,-6.2,30.09,WNW,290,2.5,9.1,53,0.00,n/a,n/a,-99.99,Henriksen +1-Wire,2013-01-03 07:00:00,
2013-01-03 02:06:00,7.8,-5.7,30.09,West,260,3.4,8.4,53,0.00,n/a,n/a,-99.99,Henriksen +1-Wire,2013-01-03 07:06:00,
2013-01-03 02:12:00,7.9,-5.6,30.09,NW,316,3.4,8.4,53,0.00,n/a,n/a,-99.99,Henriksen +1-Wire,2013-01-03 07:12:00,
2013-01-03 02:18:00,7.8,-5.8,30.09,WNW,296,2.1,5.7,53,0.00,n/a,n/a,-99.99,Henriksen +1-Wire,2013-01-03 07:18:00,
2013-01-03 02:24:00,7.8,-5.9,30.08,WNW,291,3.4,7.4,53,0.00,n/a,n/a,-99.99,Henriksen +1-Wire,2013-01-03 07:24:00,
2013-01-03 02:30:00,7.6,-6.2,30.08,WNW,290,3.1,7.4,52,0.00,n/a,n/a,-99.99,Henriksen +1-Wire,2013-01-03 07:30:00,
2013-01-03 02:36:00,7.8,-5.7,30.09,WSW,258,2.4,5.7,53,0.00,n/a,n/a,-99.99,Henriksen +1-Wire,2013-01-03 07:36:00,
2013-01-03 02:42:00,7.9,-5.8,30.09,WNW,289,4.3,9.0,53,0.00,n/a,n/a,-99.99,Henriksen +1-Wire,2013-01-03 07:42:00,
2013-01-03 02:48:00,7.8,-5.7,30.09,WNW,289,1.9,9.0,53,0.00,n/a,n/a,-99.99,Henriksen +1-Wire,2013-01-03 07:48:00,
2013-01-03 02:54:00,7.6,-5.8,30.09,WNW,303,2.9,6.5,54,0.00,n/a,n/a,-99.99,Henriksen +1-Wire,2013-01-03 07:54:00,
2013-01-03 03:00:00,7.1,-6.2,30.09,WNW,289,3.4,7.8,54,0.00,n/a,n/a,-99.99,Henriksen +1-Wire,2013-01-03 08:00:00,
2013-01-03 03:06:00,7.5,-5.8,30.09,WNW,295,3.3,7.8,54,0.00,n/a,n/a,-99.99,Henriksen +1-Wire,2013-01-03 08:06:00,
2013-01-03 03:12:00,7.6,-5.8,30.09,WNW,295,2.3,6.6,54,0.00,n/a,n/a,-99.99,Henriksen +1-Wire,2013-01-03 08:12:00,
2013-01-03 03:18:00,7.6,-5.7,30.08,WNW,290,1.9,6.6,54,0.00,n/a,n/a,-99.99,Henriksen +1-Wire,2013-01-03 08:18:00,
2013-01-03 03:24:00,7.5,-5.6,30.08,WNW,292,3.1,6.5,54,0.00,n/a,n/a,-99.99,Henriksen +1-Wire,2013-01-03 08:24:00,
2013-01-03 03:30:00,7.3,-5.5,30.08,West,262,2.9,4.9,55,0.00,n/a,n/a,-99.99,Henriksen +1-Wire,2013-01-03 08:30:00,
2013-01-03 03:36:00,6.9,-5.8,30.08,West,261,2.3,4.8,55,0.00,n/a,n/a,-99.99,Henriksen +1-Wire,2013-01-03 08:36:00,
2013-01-03 03:42:00,6.5,-6.1,30.08,WNW,293,2.8,7.8,55,0.00,n/a,n/a,-99.99,Henriksen +1-Wire,2013-01-03 08:42:00,
2013-01-03 03:48:00,5.9,-6.8,30.08,WNW,295,3.4,6.8,55,0.00,n/a,n/a,-99.99,Henriksen +1-Wire,2013-01-03 08:48:00,
2013-01-03 03:54:00,5.4,-7.3,30.08,WNW,297,3.3,7.1,55,0.00,n/a,n/a,-99.99,Henriksen +1-Wire,2013-01-03 08:54:00,
2013-01-03 04:00:00,5.4,-7.3,30.08,WNW,294,1.8,9.2,55,0.00,n/a,n/a,-99.99,Henriksen +1-Wire,2013-01-03 09:00:00,
2013-01-03 04:06:00,5.1,-7.2,30.08,WNW,295,1.6,4.2,56,0.00,n/a,n/a,-99.99,Henriksen +1-Wire,2013-01-03 09:06:00,
2013-01-03 04:12:00,5.1,-7.2,30.08,WNW,295,2.0,4.3,56,0.00,n/a,n/a,-99.99,Henriksen +1-Wire,2013-01-03 09:12:00,
2013-01-03 04:18:00,5.1,-7.4,30.07,WNW,293,2.8,7.1,56,0.00,n/a,n/a,-99.99,Henriksen +1-Wire,2013-01-03 09:18:00,
2013-01-03 04:24:00,5.0,-7.4,30.07,NW,317,2.0,7.1,56,0.00,n/a,n/a,-99.99,Henriksen +1-Wire,2013-01-03 09:24:00,
2013-01-03 04:30:00,5.0,-7.5,30.07,WNW,292,1.7,4.5,56,0.00,n/a,n/a,-99.99,Henriksen +1-Wire,2013-01-03 09:30:00,
2013-01-03 04:36:00,4.8,-7.5,30.07,WNW,288,0.5,3.9,56,0.00,n/a,n/a,-99.99,Henriksen +1-Wire,2013-01-03 09:36:00,
2013-01-03 04:42:00,4.8,-7.5,30.08,WNW,289,1.2,4.9,56,0.00,n/a,n/a,-99.99,Henriksen +1-Wire,2013-01-03 09:42:00,
2013-01-03 04:48:00,4.8,-7.4,30.08,WNW,293,2.4,4.9,56,0.00,n/a,n/a,-99.99,Henriksen +1-Wire,2013-01-03 09:48:00,
2013-01-03 04:54:00,4.9,-7.2,30.08,West,275,1.0,4.8,56,0.00,n/a,n/a,-99.99,Henriksen +1-Wire,2013-01-03 09:54:00,
2013-01-03 05:00:00,5.2,-7.0,30.07,WNW,293,0.7,4.3,56,0.00,n/a,n/a,-99.99,Henriksen +1-Wire,2013-01-03 10:00:00,
2013-01-03 05:06:00,6.0,-6.1,30.07,WNW,282,1.0,4.3,57,0.00,n/a,n/a,-99.99,Henriksen +1-Wire,2013-01-03 10:06:00,
2013-01-03 05:12:00,5.6,-6.4,30.07,NW,317,2.0,4.8,57,0.00,n/a,n/a,-99.99,Henriksen +1-Wire,2013-01-03 10:12:00,
2013-01-03 05:18:00,5.7,-6.5,30.07,NW,307,2.2,4.8,57,0.00,n/a,n/a,-99.99,Henriksen +1-Wire,2013-01-03 10:18:00,
2013-01-03 05:24:00,5.9,-6.1,30.07,SSW,202,1.1,4.3,57,0.00,n/a,n/a,-99.99,Henriksen +1-Wire,2013-01-03 10:24:00,
2013-01-03 05:30:00,6.0,-5.8,30.07,WSW,255,0.1,3.5,58,0.00,n/a,n/a,-99.99,Henriksen +1-Wire,2013-01-03 10:30:00,
2013-01-03 05:36:00,6.0,-5.7,30.08,WSW,256,1.1,4.7,58,0.00,n/a,n/a,-99.99,Henriksen +1-Wire,2013-01-03 10:36:00,
2013-01-03 05:42:00,6.0,-5.6,30.08,WNW,294,1.3,3.8,58,0.00,n/a,n/a,-99.99,Henriksen +1-Wire,2013-01-03 10:42:00,
2013-01-03 05:48:00,5.9,-6.0,30.07,WNW,299,1.8,6.3,57,0.00,n/a,n/a,-99.99,Henriksen +1-Wire,2013-01-03 10:48:00,
2013-01-03 05:54:00,5.9,-6.0,30.08,NW,310,1.9,7.8,57,0.00,n/a,n/a,-99.99,Henriksen +1-Wire,2013-01-03 10:54:00,
2013-01-03 06:00:00,6.1,-5.8,30.08,WNW,298,0.9,7.8,57,0.00,n/a,n/a,-99.99,Henriksen +1-Wire,2013-01-03 11:00:00,
2013-01-03 06:06:00,6.0,-5.6,30.07,SSW,203,0.2,3.2,58,0.00,n/a,n/a,-99.99,Henriksen +1-Wire,2013-01-03 11:06:00,
2013-01-03 06:12:00,5.9,-5.6,30.08,North,352,0.1,2.3,58,0.00,n/a,n/a,-99.99,Henriksen +1-Wire,2013-01-03 11:12:00,
2013-01-03 06:18:00,5.8,-5.7,30.07,NW,315,1.3,4.6,58,0.00,n/a,n/a,-99.99,Henriksen +1-Wire,2013-01-03 11:18:00,
2013-01-03 06:24:00,5.9,-5.7,30.07,NW,311,0.2,3.2,58,0.00,n/a,n/a,-99.99,Henriksen +1-Wire,2013-01-03 11:24:00,
2013-01-03 06:30:00,5.9,-5.5,30.07,NW,304,0.8,2.3,59,0.00,n/a,n/a,-99.99,Henriksen +1-Wire,2013-01-03 11:30:00,
2013-01-03 06:36:00,5.8,-5.6,30.08,WNW,293,0.1,2.3,59,0.00,n/a,n/a,-99.99,Henriksen +1-Wire,2013-01-03 11:36:00,
2013-01-03 06:42:00,5.8,-5.4,30.07,WNW,283,0.5,2.2,59,0.00,n/a,n/a,-99.99,Henriksen +1-Wire,2013-01-03 11:42:00,
2013-01-03 06:48:00,5.7,-5.3,30.07,WNW,301,1.1,4.5,60,0.00,n/a,n/a,-99.99,Henriksen +1-Wire,2013-01-03 11:48:00,
2013-01-03 06:54:00,5.5,-5.4,30.07,WSW,243,0.2,4.5,60,0.00,n/a,n/a,-99.99,Henriksen +1-Wire,2013-01-03 11:54:00,
2013-01-03 07:00:00,4.5,-5.4,30.08,SSW,206,0.1,2.0,63,0.00,n/a,n/a,-99.99,Henriksen +1-Wire,2013-01-03 12:00:00,
2013-01-03 07:06:00,3.6,-5.9,30.08,SSW,193,0.0,2.0,64,0.00,n/a,n/a,-99.99,Henriksen +1-Wire,2013-01-03 12:06:00,
2013-01-03 07:12:00,3.7,-6.0,30.08,SSW,193,0.5,1.7,63,0.00,n/a,n/a,-99.99,Henriksen +1-Wire,2013-01-03 12:12:00,
2013-01-03 07:18:00,3.7,-5.8,30.08,SSW,199,0.6,1.6,64,0.00,n/a,n/a,-99.99,Henriksen +1-Wire,2013-01-03 12:18:00,
2013-01-03 07:24:00,3.8,-5.6,30.08,WSW,238,0.0,2.6,64,0.00,n/a,n/a,-99.99,Henriksen +1-Wire,2013-01-03 12:24:00,
2013-01-03 07:30:00,3.4,-6.2,30.08,WNW,295,0.0,1.3,64,0.00,n/a,n/a,-99.99,Henriksen +1-Wire,2013-01-03 12:30:00,
2013-01-03 07:36:00,3.4,-6.2,30.08,WNW,298,0.0,0.3,64,0.00,n/a,n/a,-99.99,Henriksen +1-Wire,2013-01-03 12:36:00,
2013-01-03 07:42:00,3.5,-6.5,30.08,NNW,328,0.4,1.6,62,0.00,n/a,n/a,-99.99,Henriksen +1-Wire,2013-01-03 12:42:00,
2013-01-03 07:48:00,5.1,-5.0,30.08,NW,324,0.0,2.0,62,0.00,n/a,n/a,-99.99,Henriksen +1-Wire,2013-01-03 12:48:00,
2013-01-03 07:54:00,5.2,-4.5,30.09,NNW,334,0.0,0.0,63,0.00,n/a,n/a,-99.99,Henriksen +1-Wire,2013-01-03 12:54:00,
2013-01-03 08:00:00,5.9,-4.3,30.09,NW,313,0.3,2.3,62,0.00,n/a,n/a,-99.99,Henriksen +1-Wire,2013-01-03 13:00:00,
2013-01-03 08:06:00,5.4,-5.4,30.08,WNW,296,1.5,3.5,60,0.00,n/a,n/a,-99.99,Henriksen +1-Wire,2013-01-03 13:06:00,
2013-01-03 08:12:00,6.0,-5.4,30.08,West,265,0.9,3.5,59,0.00,n/a,n/a,-99.99,Henriksen +1-Wire,2013-01-03 13:12:00,
2013-01-03 08:18:00,7.4,-4.6,30.08,WNW,292,2.1,5.1,57,0.00,n/a,n/a,-99.99,Henriksen +1-Wire,2013-01-03 13:18:00,
2013-01-03 08:24:00,7.2,-5.1,30.08,NW,325,0.3,5.1,56,0.00,n/a,n/a,-99.99,Henriksen +1-Wire,2013-01-03 13:24:00,
2013-01-03 08:30:00,6.8,-5.4,30.08,NW,316,1.5,6.4,57,0.00,n/a,n/a,-99.99,Henriksen +1-Wire,2013-01-03 13:30:00,
2013-01-03 08:36:00,6.8,-5.8,30.08,WNW,297,0.6,6.4,55,0.00,n/a,n/a,-99.99,Henriksen +1-Wire,2013-01-03 13:36:00,
2013-01-03 08:42:00,7.4,-5.7,30.08,NW,315,1.7,4.8,54,0.00,n/a,n/a,-99.99,Henriksen +1-Wire,2013-01-03 13:42:00,
2013-01-03 08:48:00,9.1,-4.0,30.08,West,259,2.5,6.7,55,0.00,n/a,n/a,-99.99,Henriksen +1-Wire,2013-01-03 13:48:00,
2013-01-03 08:54:00,9.5,-3.8,30.08,WSW,247,1.3,6.7,54,0.00,n/a,n/a,-99.99,Henriksen +1-Wire,2013-01-03 13:54:00,
2013-01-03 09:00:00,8.9,-4.3,30.08,WNW,299,3.2,6.4,54,0.00,n/a,n/a,-99.99,Henriksen +1-Wire,2013-01-03 14:00:00,
2013-01-03 09:06:00,8.6,-4.9,30.07,WNW,294,2.5,6.7,53,0.00,n/a,n/a,-99.99,Henriksen +1-Wire,2013-01-03 14:06:00,
2013-01-03 09:12:00,8.9,-4.7,30.07,SSW,197,3.6,8.0,53,0.00,n/a,n/a,-99.99,Henriksen +1-Wire,2013-01-03 14:12:00,
2013-01-03 09:18:00,9.8,-3.8,30.08,SW,234,2.3,8.0,53,0.00,n/a,n/a,-99.99,Henriksen +1-Wire,2013-01-03 14:18:00,
2013-01-03 09:24:00,10.8,-3.3,30.08,WNW,293,2.9,5.3,52,0.00,n/a,n/a,-99.99,Henriksen +1-Wire,2013-01-03 14:24:00,
2013-01-03 09:30:00,11.2,-3.0,30.08,WNW,289,2.1,5.3,52,0.00,n/a,n/a,-99.99,Henriksen +1-Wire,2013-01-03 14:30:00,
2013-01-03 09:36:00,11.3,-2.9,30.08,WSW,245,1.3,6.2,52,0.00,n/a,n/a,-99.99,Henriksen +1-Wire,2013-01-03 14:36:00,
2013-01-03 09:42:00,10.7,-4.0,30.08,West,271,1.8,6.2,51,0.00,n/a,n/a,-99.99,Henriksen +1-Wire,2013-01-03 14:42:00,
2013-01-03 09:48:00,11.3,-3.7,30.08,WNW,289,2.3,5.9,50,0.00,n/a,n/a,-99.99,Henriksen +1-Wire,2013-01-03 14:48:00,
2013-01-03 11:18:00,12.4,-5.3,30.05,South,184,3.8,6.4,44,0.00,n/a,n/a,-99.99,Henriksen +1-Wire,2013-01-03 16:18:00,
2013-01-03 11:24:00,15.5,-2.8,30.04,NW,320,3.0,6.4,44,0.00,n/a,n/a,-99.99,Henriksen +1-Wire,2013-01-03 16:24:00,
2013-01-03 11:30:00,18.4,-0.2,30.04,WSW,238,4.5,7.8,43,0.00,n/a,n/a,-99.99,Henriksen +1-Wire,2013-01-03 16:30:00,
2013-01-03 11:36:00,18.8,-0.3,30.04,WSW,239,2.2,7.8,42,0.00,n/a,n/a,-99.99,Henriksen +1-Wire,2013-01-03 16:36:00,
2013-01-03 11:42:00,19.0,0.2,30.04,NW,317,1.8,6.6,43,0.00,n/a,n/a,-99.99,Henriksen +1-Wire,2013-01-03 16:42:00,
2013-01-03 11:48:00,18.9,-5.1,30.04,WSW,244,4.8,7.8,34,0.00,n/a,n/a,-99.99,Henriksen +1-Wire,2013-01-03 16:48:00,
2013-01-03 11:54:00,20.0,-2.3,30.03,SSW,200,3.6,7.8,37,0.00,n/a,n/a,-99.99,Henriksen +1-Wire,2013-01-03 16:54:00,
2013-01-03 12:00:00,20.6,-1.7,30.03,South,190,5.1,8.6,37,0.00,n/a,n/a,-99.99,Henriksen +1-Wire,2013-01-03 17:00:00,
2013-01-03 12:06:00,20.2,-10.2,30.03,SSW,207,2.0,8.6,25,0.00,n/a,n/a,-99.99,Henriksen +1-Wire,2013-01-03 17:06:00,
2013-01-03 12:12:00,20.8,-1.8,30.02,WSW,243,3.7,9.6,36,0.00,n/a,n/a,-99.99,Henriksen +1-Wire,2013-01-03 17:12:00,
2013-01-03 21:44:00,19.9,12.1,29.99,SSE,159,0.5,0.0,71,0.00,n/a,n/a,-99.99,Henriksen +1-Wire,2013-01-04 02:44:00,
2013-01-03 21:50:00,15.5,8.3,29.99,South,172,0.0,0.0,72,0.00,n/a,n/a,-99.99,Henriksen +1-Wire,2013-01-04 02:50:00,
2013-01-03 21:56:00,14.3,7.4,29.99,ENE,66,0.0,0.0,74,0.00,n/a,n/a,-99.99,Henriksen +1-Wire,2013-01-04 02:56:00,
2013-01-03 22:02:00,14.1,7.1,29.99,ENE,66,0.0,0.0,73,0.00,n/a,n/a,-99.99,Henriksen +1-Wire,2013-01-04 03:02:00,
2013-01-03 22:08:00,14.3,7.3,29.99,NE,50,0.0,0.0,73,0.00,n/a,n/a,-99.99,Henriksen +1-Wire,2013-01-04 03:08:00,
2013-01-03 22:14:00,13.8,7.0,29.99,NE,45,0.0,0.0,73,0.00,n/a,n/a,-99.99,Henriksen +1-Wire,2013-01-04 03:14:00,
2013-01-03 22:20:00,14.5,7.8,29.99,SSE,154,0.0,0.0,74,0.00,n/a,n/a,-99.99,Henriksen +1-Wire,2013-01-04 03:20:00,
2013-01-03 22:26:00,14.7,8.1,29.99,SSE,155,0.0,0.0,74,0.00,n/a,n/a,-99.99,Henriksen +1-Wire,2013-01-04 03:26:00,
2013-01-03 22:32:00,14.9,8.3,29.99,SSE,151,0.0,0.0,74,0.00,n/a,n/a,-99.99,Henriksen +1-Wire,2013-01-04 03:32:00,
2013-01-03 22:38:00,14.9,7.9,29.98,SE,142,0.0,0.0,73,0.00,n/a,n/a,-99.99,Henriksen +1-Wire,2013-01-04 03:38:00,
2013-01-03 22:44:00,14.8,8.0,29.98,East,83,0.0,0.0,74,0.00,n/a,n/a,-99.99,Henriksen +1-Wire,2013-01-04 03:44:00,
2013-01-03 22:50:00,14.7,8.1,29.97,East,87,0.0,0.0,74,0.00,n/a,n/a,-99.99,Henriksen +1-Wire,2013-01-04 03:50:00,
2013-01-03 22:56:00,14.6,8.2,29.97,East,87,0.0,0.0,75,0.00,n/a,n/a,-99.99,Henriksen +1-Wire,2013-01-04 03:56:00,
2013-01-03 23:02:00,13.4,6.8,29.97,East,83,0.0,0.0,75,0.00,n/a,n/a,-99.99,Henriksen +1-Wire,2013-01-04 04:02:00,
2013-01-03 23:08:00,12.6,6.2,29.97,SE,138,0.0,0.0,75,0.00,n/a,n/a,-99.99,Henriksen +1-Wire,2013-01-04 04:08:00,
2013-01-03 23:14:00,12.5,6.6,29.97,SSE,154,0.0,0.0,77,0.00,n/a,n/a,-99.99,Henriksen +1-Wire,2013-01-04 04:14:00,
2013-01-03 23:20:00,12.6,6.6,29.96,SSE,156,0.0,0.0,76,0.00,n/a,n/a,-99.99,Henriksen +1-Wire,2013-01-04 04:20:00,
2013-01-03 23:26:00,12.4,6.2,29.96,SSE,155,0.0,0.0,76,0.00,n/a,n/a,-99.99,Henriksen +1-Wire,2013-01-04 04:26:00,
2013-01-03 23:32:00,12.1,6.0,29.96,SSE,151,0.0,0.0,76,0.00,n/a,n/a,-99.99,Henriksen +1-Wire,2013-01-04 04:32:00,
2013-01-03 23:38:00,12.1,6.3,29.96,SSE,155,0.0,0.0,77,0.00,n/a,n/a,-99.99,Henriksen +1-Wire,2013-01-04 04:38:00,
2013-01-03 23:44:00,12.9,7.3,29.95,SSE,154,0.0,0.0,78,0.00,n/a,n/a,-99.99,Henriksen +1-Wire,2013-01-04 04:44:00,
2013-01-03 23:50:00,12.7,6.8,29.95,SSE,152,0.0,0.0,77,0.00,n/a,n/a,-99.99,Henriksen +1-Wire,2013-01-04 04:50:00,
2013-01-03 23:56:00,12.4,6.6,29.95,SSE,147,0.0,0.0,77,0.00,n/a,n/a,-99.99,Henriksen +1-Wire,2013-01-04 04:56:00,